Location: Carri�res
(48.9069°N, 2.1792°E)
Time: 08:50:09
(UTC+00:00)

Meteor 1-24 Rocket - Visible Passes

Search period start: 09 May 2021 00:00
Search period end: 19 May 2021 00:00
Orbit: 789 x 928 km, 81.2° (Epoch: 08 May)

Date Brightness Start Highest point End Pass type
(mag) Time Alt. Az. Time Alt. Az. Time Alt. Az.
09 May 6.1 02:02:59 10° ESE 02:06:32 17° E 02:10:02 10° NE visible
10 May 6.1 01:53:32 10° ESE 01:56:57 17° E 02:00:19 10° NE visible
10 May 3.7 03:33:46 10° SSW 03:39:24 78° WNW 03:44:51 10° N visible
11 May 6.1 01:44:06 10° ESE 01:47:23 16° E 01:50:37 10° NE visible
11 May 3.7 03:24:11 10° SSW 03:29:47 81° WNW 03:35:15 10° N visible
12 May 6.1 01:34:40 10° ESE 01:37:48 16° E 01:40:54 10° NE visible
12 May 3.7 03:14:35 10° SSW 03:20:10 83° W 03:25:38 10° N visible
13 May 6.1 01:25:14 10° ESE 01:28:13 15° E 01:31:10 10° NE visible
13 May 3.7 03:05:00 10° SSW 03:10:34 86° WNW 03:16:01 10° N visible
14 May 6.1 01:15:49 10° ESE 01:18:39 14° E 01:21:26 10° NE visible
14 May 3.7 02:55:25 10° S 03:00:58 88° W 03:06:24 10° NNE visible
15 May 6.1 01:06:25 10° ESE 01:09:04 14° E 01:11:41 10° NE visible
15 May 3.7 02:45:49 10° S 02:51:22 89° E 02:56:46 10° NNE visible
16 May 6.1 00:57:01 10° ESE 00:59:30 13° E 01:01:56 10° NE visible
16 May 3.7 02:36:30 11° S 02:41:45 87° E 02:47:09 10° NNE visible
17 May 6.1 00:47:39 10° ESE 00:49:55 13° E 00:52:10 10° NE visible
17 May 3.7 02:27:16 13° S 02:32:09 84° E 02:37:32 10° NNE visible
18 May 6.1 00:38:17 10° ESE 00:40:20 12° E 00:42:22 10° ENE visible
18 May 3.7 02:17:57 15° S 02:22:32 82° E 02:27:54 10° NNE visible
